Location: Arboyeti
(42.1122°N, 44.6017°E)
Time: 09:13:40
(UTC+00:00)

FALCON 9 DEB - Pass Details

Date: 19 April 2021
Orbit: 422 x 435 km, 53.0° (Epoch: 05 May)

Event Time Altitude Azimuth Distance (km) Brightness Sun altitude
Rises 16:51:06 0° 237° (WSW) 2,373 7.3 -11.8°
Reaches altitude 10° 16:53:12 10° 240° (WSW) 1,513 6.3 -12.1°
Maximum altitude 16:56:35 69° 324° (NW) 461 3.4 -12.7°
Drops below altitude 10° 17:00:00 10° 49° (NE) 1,529 5.7 -13.2°
Enters shadow 17:01:56 - 52° (NE) 2,315 6.6 -13.5°
